Flight Track Log - Related Links

Times and Time Zones

All times are in EDT time to prevent confusion due to time zone crossing. See the EJA319 flight status page for this flight to view local times or setup timezone preferences in your user account.

Time Position Orientation Groundspeed Altitude Reporting Facility
EDT Latitude Longitude Course Direction KTS MPH feet Rate Location/Type
Sun 02:17:39 PM 35.1972 -80.9381 164° South 157 181 1,900  Level Atlanta Center
Sun 02:18:40 PM 35.1383 -80.9172 164° South 246 283 5,100 3,234 Climbing Atlanta Center
Sun 02:19:47 PM 35.1297 -80.8289 97° East 289 333 8,800 2,835 Climbing Atlanta Center
Sun 02:20:11 PM 35.1414 -80.8003 63° Northeast 283 326 9,400 2,397 Climbing Atlanta Center
Sun 02:25:55 PM 35.3801 -80.2512 57° Northeast 344 396 23,500 2,325 Climbing FlightAware ADS-B (EFYL / YLI)
Sun 02:26:33 PM 35.4121 -80.1913 57° Northeast 359 413 24,200 1,169 Climbing FlightAware ADS-B (EFYL / YLI)
Sun 02:27:12 PM 35.4405 -80.1155 73° East 367 422 25,000 1,171 Climbing FlightAware ADS-B (EFYL / YLI)
Sun 02:27:55 PM 35.4624 -80.0300 73° East 375 432 25,800 1,105 Climbing FlightAware ADS-B (EFYL / YLI)
Sun 02:28:28 PM 35.4794 -79.9642 73° East 388 447 26,400 960 Climbing FlightAware ADS-B (EFYL / YLI)
Sun 02:29:10 PM 35.5008 -79.8801 73° East 398 458 27,000 966 Climbing FlightAware ADS-B (EFYL / YLI)
Sun 02:29:55 PM 35.5280 -79.7728 73° East 406 467 27,800 988 Climbing FlightAware ADS-B (EFYL / YLI)
Sun 02:30:35 PM 35.5505 -79.6838 73° East 415 478 28,400 1,006 Climbing FlightAware ADS-B (EFYL / YLI)
Sun 02:32:54 PM 35.7206 -79.4434 36° Northeast 423 487 30,800 543 Climbing FlightAware ADS-B (EFYL / YLI)
Sun 02:39:03 PM 36.3288 -78.9099 36° Northeast 440 506 33,000 293 Climbing FlightAware ADS-B (KWWD)
Sun 02:40:24 PM 36.4550 -78.8069 36° Northeast 434 499 33,000  Level Washington Center
Sun 02:41:24 PM 36.5556 -78.7156 36° Northeast 439 505 33,000  Level Washington Center
Sun 02:42:26 PM 36.6539 -78.6289 35° Northeast 439 505 33,000  Level Washington Center
Sun 02:43:23 PM 36.7436 -78.5442 37° Northeast 439 505 33,000  Level Washington Center
Sun 02:44:24 PM 36.8522 -78.4444 36° Northeast 444 511 33,000 -638 Level Washington Center
Sun 02:49:39 PM 37.3900 -77.9552 37° Northeast 442 509 29,000 -686 Descending FlightAware ADS-B (KWWD)
Sun 02:50:14 PM 37.4481 -77.9019 37° Northeast 442 509 29,000  Level FlightAware ADS-B (KWWD)
Sun 02:50:56 PM 37.5178 -77.8380 37° Northeast 444 511 29,000  Level FlightAware ADS-B (KWWD)
Sun 02:51:31 PM 37.5767 -77.7845 35° Northeast 445 512 29,000  Level FlightAware ADS-B
Sun 02:52:08 PM 37.6409 -77.7266 35° Northeast 450 518 29,000  Level FlightAware ADS-B
Sun 02:52:41 PM 37.6963 -77.6764 36° Northeast 452 520 29,000  Level FlightAware ADS-B (KWWD)
Sun 02:53:55 PM 37.8218 -77.5623 36° Northeast 453 521 29,000  Level FlightAware ADS-B (KWWD)
Sun 02:54:28 PM 37.8783 -77.5108 35° Northeast 452 520 29,000  Level FlightAware ADS-B
Sun 02:55:11 PM 37.9507 -77.4447 35° Northeast 451 519 29,000  Level FlightAware ADS-B
Sun 02:55:31 PM 37.9860 -77.4124 37° Northeast 445 512 29,000  Level FlightAware ADS-B (KWWD)
Sun 02:56:11 PM 38.0526 -77.3513 35° Northeast 453 521 29,000  Level FlightAware ADS-B
Sun 02:56:19 PM 38.0669 -77.3382 36° Northeast 453 521 29,000  Level FlightAware ADS-B (KWWD)
Sun 02:56:50 PM 38.1204 -77.2891 35° Northeast 453 521 29,000  Level FlightAware ADS-B
Sun 02:57:26 PM 38.1759 -77.2380 36° Northeast 455 524 29,000  Level FlightAware ADS-B (KWWD)
Sun 02:58:04 PM 38.2469 -77.1724 36° Northeast 454 522 29,000  Level FlightAware ADS-B (KWWD)
Sun 02:58:36 PM 38.2984 -77.1247 36° Northeast 454 522 29,000  Level FlightAware ADS-B (KWWD)
Sun 02:58:53 PM 38.3292 -77.0962 36° Northeast 454 522 29,000  Level FlightAware ADS-B (KDAA)
Sun 02:59:09 PM 38.3566 -77.0708 36° Northeast 453 521 29,000  Level FlightAware ADS-B
Sun 02:59:24 PM 38.3806 -77.0485 36° Northeast 453 521 29,000  Level FlightAware ADS-B (KDAA)
Sun 02:59:44 PM 38.4139 -77.0176 37° Northeast 446 513 29,000  Level FlightAware ADS-B (KWWD)
Sun 02:59:53 PM 38.4242 -77.0080 36° Northeast 452 520 29,000  Level FlightAware ADS-B (KDAA)
Sun 03:00:18 PM 38.4728 -76.9629 37° Northeast 446 513 29,000  Level FlightAware ADS-B (KWWD)
Sun 03:00:23 PM 38.4818 -76.9545 36° Northeast 452 520 29,000 -1,455 Level FlightAware ADS-B (KDAA)
Sun 03:00:51 PM 38.5290 -76.9104 36° Northeast 468 539 28,200 -1,800 Descending FlightAware ADS-B
Sun 03:00:53 PM 38.5324 -76.9073 36° Northeast 469 540 28,100 -2,625 Descending FlightAware ADS-B (KDAA)
Sun 03:01:23 PM 38.5852 -76.8579 36° Northeast 466 536 26,800 -2,727 Descending FlightAware ADS-B (KDAA)
Sun 03:01:26 PM 38.5922 -76.8514 37° Northeast 460 529 26,600 -2,600 Descending FlightAware ADS-B (KWWD)
Sun 03:01:53 PM 38.6385 -76.8081 36° Northeast 462 532 25,500 -2,327 Descending FlightAware ADS-B (KDAA)
Sun 03:02:15 PM 38.6737 -76.7707 46° Northeast 458 527 24,700 -2,400 Descending FlightAware ADS-B (KWWD)
Sun 03:02:23 PM 38.6731 -76.7715 49° Northeast 463 533 24,300 -1,556 Descending FlightAware ADS-B (KDAA)
Sun 03:02:42 PM 38.7064 -76.7131 61° Northeast 452 520 24,000 -889 Descending FlightAware ADS-B (KDAA)
Sun 03:02:50 PM 38.7136 -76.6937 66° East 447 514 23,900 -1,143 Descending FlightAware ADS-B
Sun 03:03:03 PM 38.7233 -76.6591 73° East 441 507 23,600 -1,350 Descending FlightAware ADS-B (KDAA)
Sun 03:03:30 PM 38.7365 -76.5944 75° East 437 503 23,000 -1,200 Descending FlightAware ADS-B
Sun 03:03:33 PM 38.7371 -76.5916 74° East 436 502 23,000 -1,600 Level FlightAware ADS-B (KDAA)
Sun 03:04:00 PM 38.7530 -76.5174 74° East 438 504 22,200 -1,636 Descending FlightAware ADS-B (KDAA)
Sun 03:04:17 PM 38.7626 -76.4719 75° East 445 512 21,800 -2,143 Descending FlightAware ADS-B (KWWD)
Sun 03:04:56 PM 38.7831 -76.3732 75° East 444 511 20,200 -2,400 Descending FlightAware ADS-B (KWWD)
Sun 03:05:27 PM 38.7986 -76.2980 75° East 439 505 19,000 -2,459 Descending FlightAware ADS-B (KWWD)
Sun 03:05:57 PM 38.8146 -76.2203 77° East 428 493 17,700 -2,557 Descending FlightAware ADS-B (KWWD)
Sun 03:06:28 PM 38.8298 -76.1459 76° East 417 480 16,400 -2,229 Descending FlightAware ADS-B (KWWD)
Sun 03:07:07 PM 38.8487 -76.0533 76° East 399 459 15,100 -1,037 Descending FlightAware ADS-B (KWWD)
Sun 03:07:49 PM 38.8678 -75.9588 76° East 398 458 15,000 -74 Descending FlightAware ADS-B (KWWD)
Sun 03:08:28 PM 38.8879 -75.8691 68° East 394 453 15,000  Level FlightAware ADS-B (KWWD)
Sun 03:08:48 PM 38.9076 -75.8296 51° Northeast 391 450 15,000  Level FlightAware ADS-B (KWWD)
Sun 03:09:09 PM 38.9356 -75.7968 37° Northeast 387 445 15,000  Level FlightAware ADS-B (KWWD)
Sun 03:09:46 PM 38.9897 -75.7460 38° Northeast 388 447 15,000 -88 Level FlightAware ADS-B (KWWD)
Sun 03:10:17 PM 39.0358 -75.7020 36° Northeast 398 458 14,900 -980 Descending FlightAware ADS-B (KWWD)
Sun 03:10:35 PM 39.0652 -75.6818 18° North 393 452 14,200 -2,100 Descending FlightAware ADS-B (KWWD)
Sun 03:10:57 PM 39.1034 -75.6731 North 369 425 13,500 -1,889 Descending FlightAware ADS-B (KWWD)
Sun 03:11:29 PM 39.1561 -75.6680 North 342 394 12,500 -1,867 Descending FlightAware ADS-B (KWWD)
Sun 03:11:42 PM 39.1741 -75.6658 North 376 433 12,100 -1,754 Descending FlightAware ADS-B
Sun 03:12:34 PM 39.2552 -75.6568 North 310 357 10,600 -1,714 Descending FlightAware ADS-B (KWWD)
Sun 03:12:52 PM 39.2802 -75.6507 17° North 306 352 10,100 -818 Descending FlightAware ADS-B (KWWD)
Sun 03:13:18 PM 39.3128 -75.6282 36° Northeast 300 345 10,000 -231 Descending FlightAware ADS-B (KWWD)
Sun 03:13:44 PM 39.3434 -75.6013 33° Northeast 310 357 9,900 -585 Descending FlightAware ADS-B (KWWD)
Sun 03:13:59 PM 39.3614 -75.5861 33° Northeast 307 353 9,600 -1,333 Descending FlightAware ADS-B (KWWD)
Sun 03:14:11 PM 39.3749 -75.5736 39° Northeast 295 339 9,300 -1,448 Descending FlightAware ADS-B (KWWD)
Sun 03:14:28 PM 39.3913 -75.5529 49° Northeast 288 331 8,900 -1,459 Descending FlightAware ADS-B (KWWD)
Sun 03:14:48 PM 39.4070 -75.5242 60° Northeast 288 331 8,400 -1,463 Descending FlightAware ADS-B (KWWD)
Sun 03:15:09 PM 39.4218 -75.4936 58° Northeast 298 343 7,900 -1,385 Descending FlightAware ADS-B (KWWD)
Sun 03:15:27 PM 39.4355 -75.4662 59° Northeast 288 331 7,500 -1,459 Descending FlightAware ADS-B (KWWD)
Sun 03:15:46 PM 39.4488 -75.4393 59° Northeast 283 326 7,000 -1,610 Descending FlightAware ADS-B (KWWD)
Sun 03:16:08 PM 39.4647 -75.4071 59° Northeast 281 323 6,400 -1,674 Descending FlightAware ADS-B (KWWD)
Sun 03:16:29 PM 39.4796 -75.3766 59° Northeast 279 321 5,800 -1,756 Descending FlightAware ADS-B (KWWD)
Sun 03:16:49 PM 39.4936 -75.3481 58° Northeast 279 321 5,200 -1,200 Descending FlightAware ADS-B (KWWD)
Sun 03:17:09 PM 39.5075 -75.3211 49° Northeast 271 312 5,000 -686 Descending FlightAware ADS-B (KWWD)
Sun 03:17:24 PM 39.5248 -75.3072 22° Northeast 276 318 4,800 -800 Descending FlightAware ADS-B (KWWD)
Sun 03:17:39 PM 39.5190 -75.3103 20° North 284 327 4,600 -933 Descending FlightAware ADS-B (KPHL)
Sun 03:18:09 PM 39.5789 -75.2822 20° North 274 315 4,100 -1,034 Descending FlightAware ADS-B (KPHL)
Sun 03:18:37 PM 39.6126 -75.2669 19° North 259 298 3,600 -1,017 Descending FlightAware ADS-B (KWWD)
Sun 03:19:08 PM 39.6482 -75.2508 20° North 259 298 3,100 -878 Descending FlightAware ADS-B (KWWD)
Sun 03:19:18 PM 39.6576 -75.2420 42° Northeast 246 283 3,000 -188 Descending FlightAware ADS-B (KWWD)
Sun 03:19:40 PM 39.6743 -75.2188 47° Northeast 219 252 3,000  Level FlightAware ADS-B (KPHL)
Sun 03:19:58 PM 39.6858 -75.2027 49° Northeast 193 222 3,000  Level FlightAware ADS-B (KWWD)
Sun 03:20:24 PM 39.7001 -75.1830 44° Northeast 186 214 3,000  Level FlightAware ADS-B (KPHL)
Sun 03:20:39 PM 39.7134 -75.1741 13° North 188 216 3,000  Level FlightAware ADS-B (KPHL)
Sun 03:21:10 PM 39.7390 -75.1690 13° North 182 209 3,000 -150 Level FlightAware ADS-B (KWWD)
Sun 03:21:19 PM 39.7473 -75.1705 350° North 179 206 2,900 -316 Descending FlightAware ADS-B (KWWD)
Sun 03:21:48 PM 39.7710 -75.1788 341° North 172 198 2,800 -480 Descending FlightAware ADS-B (KWWD)
Sun 03:22:09 PM 39.7869 -75.1859 339° North 168 193 2,500 -1,000 Descending FlightAware ADS-B (KPHL)
Sun 03:22:24 PM 39.7974 -75.1912 340° North 158 182 2,200 -1,400 Descending FlightAware ADS-B (KWWD)
Sun 03:22:39 PM 39.8076 -75.1962 339° North 155 178 1,800 -1,548 Descending FlightAware ADS-B (KPHL)
Sun 03:22:55 PM 39.8166 -75.2006 339° North 152 175 1,400 -1,286 Descending FlightAware ADS-B (KPHL)
Sun 03:23:07 PM 39.8262 -75.2055 337° Northwest 138 159 1,200 -1,071 Descending FlightAware ADS-B (KWWD)
Sun 03:23:23 PM 39.8358 -75.2104 338° Northwest 137 158 900 -892 Descending FlightAware ADS-B (KWWD)
Sun 03:24:21 PM 39.8708 -75.2277 339° North 131 151 100 -828 Descending FlightAware ADS-B (KPHL)

Login

Don't have an account? Register now (free) for customized features, flight alerts, and more!